Lid_Strength_Index
3 3 3 3 3 3 3 3 3 4 4 4 4 3 3 3 3 3 2 1 1 1 1 2 2 2 2 6 7 4 0 1 2 4 5 6 8 9 11 10 10 11 10 9 8 9 8
3 3 3 3 2 3 3 3 3 3 3 4 3 3 3 3 3 3 2 2 1 2 1 1 2 1 4 9 4 3 4 4 4 4 5 6 7 7 9 10 11 9 9 9 9 9 9
3 3 3 3 3 2 2 3 3 3 3 3 3 2 2 3 3 2 2 2 1 1 1 2 2 3 4 6 3 2 4 6 5 4 5 4 6 7 9 10 8 9 11 10 10 10 10
4 3 3 3 3 3 2 2 2 3 3 3 2 2 2 2 2 2 2 2 1 1 1 1 2 4 7 1 2 3 3 5 5 6 4 4 4 6 8 8 9 11 12 14 11 10 9
4 3 3 3 3 3 3 2 2 2 3 2 2 2 2 2 2 2 2 1 1 1 1 1 5 6 8 1 3 2 2 5 5 5 4 2 4 8 8 11 13 13 15 14 12 10 10
4 3 3 3 3 3 3 2 2 2 2 2 2 2 1 1 1 1 1 1 1 1 2 2 3 9 6 6 3 2 3 3 6 6 5 5 7 10 12 13 15 15 15 14 14 12 11
3 3 3 3 3 3 3 2 2 2 2 2 2 2 2 1 1 1 2 4 6 7 6 8 9 8 6 3 1 3 4 6 5 6 10 8 11 12 11 11 11 12 13 14 14 10 11
3 3 3 3 3 3 3 3 2 3 2 2 2 2 2 1 1 1 2 6 5 4 8 6 6 6 5 4 6 4 3 8 8 10 8 9 12 9 9 9 10 11 12 13 12 10 11
4 4 4 3 3 3 3 3 3 3 2 1 1 1 2 2 1 2 4 5 2 2 8 7 6 7 7 5 7 6 4 7 9 10 9 11 11 7 9 10 11 11 12 12 13 11 11
4 4 4 4 3 3 3 3 3 2 2 1 1 1 1 1 4 3 4 2 1 2 12 10 8 6 6 7 8 3 3 6 8 11 9 10 7 8 9 10 10 13 10 11 11 13 15
4 4 4 4 4 3 3 3 3 2 2 1 1 1 0 1 3 5 2 1 2 3 20 9 8 2 4 8 7 6 3 5 9 9 9 11 9 10 11 10 8 11 9 10 10 12 15
4 4 4 4 4 3 3 3 3 2 2 2 2 1 0 2 3 2 1 -0 2 13 19 10 8 9 9 7 9 6 6 5 5 9 9 10 7 7 9 8 7 7 9 9 10 13 16
4 4 4 4 4 4 3 3 3 3 3 2 2 1 1 1 4 1 -0 4 13 18 9 11 10 9 10 10 9 8 9 10 12 14 13 11 10 8 7 10 7 8 11 15 16 17 16
4 4 4 4 4 4 4 4 3 3 2 2 2 1 1 1 1 1 3 9 17 13 11 8 8 9 12 10 11 9 9 12 10 10 12 14 15 10 8 9 10 10 11 16 19 18 16
5 5 4 4 4 4 4 4 3 2 1 1 2 5 4 3 2 1 6 14 16 12 9 10 9 11 13 11 11 11 11 11 10 9 13 14 14 9 8 8 8 10 12 10 13 13 15
4 4 4 4 5 5 4 4 3 2 2 1 6 6 5 3 2 3 9 13 12 8 8 9 12 10 13 12 12 12 13 10 10 8 7 11 15 9 9 8 7 9 8 13 13 18 18
5 5 5 5 5 5 4 4 3 2 2 1 6 8 5 3 1 6 13 12 10 7 7 10 11 11 11 11 11 12 13 10 9 9 8 10 12 12 9 10 12 11 11 10 11 13 17
6 5 5 5 5 5 5 4 3 3 2 4 6 12 5 3 9 9 11 10 7 8 7 8 8 10 10 10 11 11 11 10 7 8 11 9 12 15 13 9 7 9 11 10 14 15 13
5 5 5 5 5 5 5 4 3 3 3 5 9 10 6 4 12 11 9 9 8 9 9 9 10 9 9 11 13 10 10 8 7 9 11 9 13 17 15 11 9 11 10 10 10 11 14
6 6 6 5 5 5 4 4 3 3 4 7 9 13 11 7 9 10 11 11 10 7 8 8 9 8 10 11 10 12 11 8 7 8 7 8 13 15 17 14 11 12 11 10 11 14 13
6 6 6 6 6 5 4 4 3 4 4 5 12 11 9 15 12 10 10 10 11 11 8 8 10 10 11 13 12 12 10 9 8 8 9 10 15 14 13 12 12 13 13 12 12 11 14
7 6 6 6 5 5 4 4 4 4 4 7 11 11 9 10 10 12 11 11 11 10 10 11 11 10 10 12 11 12 10 10 11 9 10 10 15 13 15 13 13 15 12 12 12 12 11
7 7 7 5 5 4 4 4 4 4 4 8 8 7 9 11 10 11 12 11 11 9 8 8 9 10 11 10 8 7 7 8 9 10 11 11 13 15 17 12 13 16 14 12 12 11 11
7 7 6 6 5 4 4 4 4 4 4 8 7 8 11 14 12 13 10 10 11 10 11 8 7 9 7 5 5 6 7 8 8 9 9 11 13 14 16 15 21 13 10 10 11 10 9
7 7 7 6 5 4 5 4 4 4 4 8 7 8 10 14 12 11 10 10 9 9 10 10 8 6 5 7 11 13 14 13 11 9 9 9 12 15 18 17 14 13 12 11 12 12 9
7 7 7 7 5 5 4 5 4 4 4 7 8 8 9 12 13 9 9 9 11 11 10 9 6 5 6 9 12 16 17 14 15 13 9 9 10 14 16 19 20 14 11 9 10 16 10
7 7 7 7 6 5 5 5 4 4 4 6 6 7 9 12 10 9 10 10 7 9 10 9 8 8 6 11 14 15 16 12 15 15 14 14 13 16 16 17 15 10 9 9 14 15 10
7 7 7 7 7 6 5 5 5 4 4 5 7 7 8 11 9 8 7 8 8 8 11 8 9 9 10 13 14 14 15 13 14 12 12 14 15 16 15 17 18 7 9 12 10 9 10
7 7 7 7 7 7 6 5 5 5 4 4 8 7 6 9 9 7 6 6 6 6 8 7 9 9 9 11 11 12 14 13 13 16 10 15 12 14 13 14 8 7 8 6 6 8 9